Temperature
9 9 9 8 8 7 7 6 6 5 5 5 5 4 4 4 4 3 3 2 2 2 2 1 1 0 -0 -1 -1 -2 -2 -3 -4 -4 -3 -4 -3 -3 -3 -3 -2 -2 -2
9 8 8 7 7 7 6 6 5 5 5 4 4 4 4 3 3 2 2 2 1 1 1 0 -0 -1 -1 -2 -2 -3 -3 -3 -4 -5 -4 -4 -4 -4 -4 -3 -3 -3 -3
8 8 7 7 7 6 6 5 5 4 4 4 4 3 3 3 2 2 1 1 1 0 -0 -1 -1 -2 -2 -3 -3 -3 -4 -4 -5 -5 -5 -4 -4 -4 -4 -4 -4 -3 -3
8 7 7 6 6 5 5 5 4 4 4 3 3 3 2 2 2 1 1 0 -0 -1 -1 -2 -2 -3 -3 -3 -4 -4 -4 -5 -5 -5 -5 -5 -5 -4 -4 -4 -4 -4 -4
7 7 6 6 5 5 5 4 4 3 3 3 2 2 2 1 1 0 -0 -1 -1 -2 -2 -2 -3 -3 -4 -4 -5 -5 -5 -5 -5 -5 -5 -5 -5 -5 -5 -4 -5 -4 -4
7 6 6 5 5 4 4 3 3 3 2 2 2 1 1 1 0 -0 -1 -2 -2 -3 -3 -3 -4 -4 -4 -5 -5 -5 -5 -5 -5 -5 -5 -5 -5 -5 -5 -5 -5 -5 -5
6 6 5 5 4 4 3 3 2 2 2 1 1 1 0 0 -0 -1 -2 -3 -3 -3 -4 -4 -4 -5 -5 -5 -5 -5 -5 -5 -5 -5 -5 -5 -5 -5 -5 -5 -5 -5 -5
5 5 5 4 4 3 3 2 2 1 1 1 1 0 -0 -0 -1 -2 -2 -3 -3 -4 -4 -5 -5 -5 -5 -6 -5 -5 -5 -5 -5 -5 -5 -5 -5 -5 -5 -4 -4 -4 -4
5 4 4 3 3 2 2 2 1 1 1 0 -0 -1 -1 -1 -1 -2 -3 -4 -4 -4 -4 -5 -5 -6 -6 -6 -6 -5 -5 -5 -5 -5 -5 -5 -5 -5 -5 -5 -4 -5 -4
4 4 3 3 2 2 1 1 1 0 -0 -0 -1 -1 -1 -2 -2 -3 -4 -4 -5 -5 -5 -5 -6 -6 -6 -6 -6 -6 -6 -6 -5 -5 -5 -5 -5 -5 -5 -5 -5 -5 -5
3 3 3 2 2 1 1 1 0 -0 -1 -1 -1 -1 -2 -2 -2 -3 -4 -5 -5 -6 -6 -6 -6 -6 -6 -6 -6 -6 -6 -6 -6 -6 -6 -6 -5 -5 -5 -5 -5 -5 -5
3 2 2 2 1 1 0 -0 -0 -1 -1 -1 -2 -2 -2 -2 -3 -4 -5 -6 -6 -6 -6 -6 -6 -6 -6 -6 -6 -6 -6 -6 -6 -6 -6 -6 -6 -6 -6 -6 -6 -6 -5
2 2 1 1 1 0 -0 -1 -1 -1 -2 -2 -3 -3 -3 -3 -4 -5 -5 -6 -6 -6 -6 -7 -7 -6 -6 -6 -6 -6 -6 -7 -7 -7 -7 -7 -7 -7 -6 -6 -6 -6 -6
2 1 1 0 0 -0 -1 -1 -2 -2 -3 -3 -4 -4 -4 -5 -5 -5 -6 -6 -6 -6 -6 -7 -7 -7 -7 -7 -7 -7 -7 -7 -7 -7 -7 -7 -7 -7 -7 -7 -6 -6 -6
1 0 0 -0 -1 -1 -1 -2 -2 -3 -4 -4 -5 -5 -6 -6 -6 -6 -6 -6 -6 -7 -7 -7 -7 -7 -7 -7 -7 -7 -7 -7 -7 -7 -7 -7 -7 -7 -7 -7 -7 -7 -7
0 -0 -0 -1 -1 -2 -2 -2 -3 -3 -4 -5 -5 -6 -6 -6 -6 -7 -7 -7 -7 -7 -7 -7 -8 -8 -8 -8 -8 -8 -8 -8 -8 -8 -8 -8 -8 -8 -7 -7 -7 -7 -7
-0 -1 -1 -2 -2 -3 -3 -4 -4 -4 -4 -5 -5 -6 -6 -6 -7 -7 -7 -7 -7 -8 -8 -8 -8 -9 -9 -9 -9 -9 -8 -8 -8 -8 -8 -8 -8 -8 -8 -8 -7 -7 -7
-1 -1 -2 -3 -3 -4 -4 -5 -5 -6 -6 -5 -6 -6 -6 -7 -7 -7 -8 -8 -8 -8 -8 -9 -9 -9 -9 -9 -9 -9 -9 -9 -8 -8 -8 -8 -8 -8 -8 -8 -8 -8 -7
-2 -2 -3 -3 -4 -4 -5 -6 -6 -6 -7 -7 -7 -7 -7 -7 -8 -8 -8 -8 -9 -9 -9 -9 -9 -10 -10 -9 -9 -9 -9 -9 -9 -9 -8 -8 -8 -8 -8 -8 -8 -8 -8
-3 -3 -4 -5 -5 -5 -6 -6 -7 -7 -7 -7 -8 -8 -8 -8 -8 -8 -8 -9 -9 -9 -10 -10 -10 -10 -10 -10 -10 -9 -9 -9 -9 -9 -9 -9 -9 -9 -8 -8 -8 -8 -8
-4 -4 -5 -5 -6 -6 -7 -7 -7 -8 -8 -8 -8 -8 -8 -8 -8 -9 -9 -9 -10 -10 -10 -10 -10 -10 -10 -10 -10 -10 -10 -9 -9 -9 -9 -9 -9 -9 -9 -9 -9 -9 -9
-4 -5 -5 -6 -6 -7 -7 -8 -8 -8 -8 -8 -9 -9 -9 -9 -9 -9 -10 -10 -10 -10 -10 -11 -11 -10 -10 -10 -10 -10 -10 -10 -10 -9 -9 -9 -9 -9 -9 -9 -9 -9 -9
-5 -6 -6 -7 -7 -8 -8 -8 -9 -9 -9 -9 -9 -9 -9 -10 -10 -10 -10 -10 -11 -11 -11 -11 -11 -11 -11 -10 -10 -10 -10 -10 -10 -10 -10 -10 -9 -9 -9 -9 -9 -9 -9
-6 -7 -7 -8 -8 -9 -9 -9 -9 -10 -10 -10 -10 -10 -10 -10 -10 -11 -11 -11 -11 -11 -11 -11 -11 -11 -11 -11 -11 -10 -10 -10 -10 -10 -10 -10 -10 -10 -10 -10 -9 -9 -9
-8 -8 -8 -9 -9 -9 -10 -10 -10 -10 -11 -11 -11 -11 -11 -11 -11 -11 -11 -11 -12 -12 -11 -11 -11 -11 -11 -11 -11 -10 -10 -10 -10 -10 -10 -10 -10 -10 -10 -10 -10 -10 -10
-8 -9 -9 -9 -10 -10 -11 -11 -11 -11 -11 -11 -12 -12 -12 -12 -12 -12 -12 -12 -12 -12 -12 -12 -12 -11 -11 -11 -11 -10 -10 -10 -10 -10 -10 -10 -10 -10 -10 -10 -10 -10 -10
Wind_Speed
7 5 5 3 3 2 1 1 2 2 3 4 5 5 6 6 6 6 7 8 8 8 8 8 9 9 7 7 6 7 7 8 16 14 7 7 9 11 13 16 19 18 20
6 6 5 3 2 1 1 2 2 3 3 4 5 6 7 7 7 7 9 9 9 10 10 9 10 9 9 8 7 9 9 9 13 19 12 8 10 10 12 12 13 16 14
6 6 4 3 2 2 3 3 3 4 5 5 6 7 8 8 8 8 9 9 10 10 10 10 11 10 11 9 9 10 10 11 11 15 16 10 9 9 10 12 13 11 14
6 5 4 3 4 4 4 4 4 5 6 7 7 8 8 8 9 9 9 10 10 10 10 11 11 11 12 11 11 11 11 11 12 13 15 12 10 8 8 9 10 8 10
6 5 4 4 4 4 4 5 5 6 7 7 8 8 8 8 8 9 9 9 10 10 10 10 11 14 18 16 14 10 10 11 11 12 14 13 11 8 8 7 12 10 10
6 5 4 4 4 5 6 6 6 7 7 7 8 9 9 9 16 20 16 10 9 9 10 10 11 14 18 23 25 24 21 15 13 13 14 14 14 11 10 10 12 13 11
5 4 4 4 5 6 6 6 7 7 7 8 9 9 10 12 20 22 22 14 9 9 10 10 11 12 18 12 19 24 22 26 25 18 17 17 16 13 13 14 13 14 14
4 4 4 5 6 6 6 7 8 7 8 8 9 10 10 13 21 22 23 13 9 10 10 11 12 12 13 15 13 13 14 15 18 15 14 16 16 15 15 16 17 15 14
4 5 5 5 6 6 7 8 8 7 8 8 9 10 10 13 20 23 23 10 9 10 10 11 13 12 21 25 18 15 15 13 19 25 26 25 27 27 22 13 11 12 13
5 6 6 6 7 8 8 9 7 7 9 9 9 9 10 11 18 22 23 9 9 10 10 11 18 20 24 26 17 14 17 15 13 15 17 19 17 18 22 13 10 12 11
5 5 6 6 7 8 8 7 8 8 9 9 10 10 10 13 17 21 22 11 9 11 10 8 9 23 26 28 24 16 20 20 13 11 11 10 9 9 9 9 9 10 11
5 6 7 7 7 7 8 8 8 8 9 10 10 10 8 10 15 17 22 22 20 13 11 9 12 25 27 28 22 21 27 22 9 9 10 9 8 8 8 8 9 9 10
5 6 7 8 7 7 8 9 8 8 8 9 9 10 10 8 10 21 23 24 24 15 12 20 24 28 25 18 20 25 20 10 8 9 9 9 7 8 8 7 7 7 7
6 7 7 7 8 8 7 7 7 8 8 9 10 11 11 9 7 8 9 12 16 15 13 17 23 23 18 18 17 13 8 9 10 9 8 8 7 7 7 6 6 5 5
7 7 7 7 8 8 8 7 9 8 10 11 10 9 11 12 13 21 18 11 10 12 14 9 7 7 8 8 8 8 7 7 8 7 8 8 8 7 7 5 5 5 5
7 7 6 6 7 7 8 10 13 15 21 22 21 20 16 20 26 27 26 25 26 24 17 9 9 9 10 10 10 9 8 8 8 8 8 8 8 7 7 6 5 5 6
7 8 7 7 7 8 8 9 12 14 18 20 21 23 22 25 26 26 26 26 24 22 11 8 9 10 10 10 9 9 9 8 8 8 8 8 8 7 7 6 6 5 5
8 9 9 7 7 8 8 9 10 12 14 11 14 20 23 24 25 25 25 21 13 11 7 9 10 10 10 10 9 9 9 8 8 8 8 8 7 7 7 6 6 5 5
8 7 7 7 8 8 9 9 10 12 13 13 11 13 19 21 23 23 21 10 10 10 9 9 9 10 10 10 10 9 9 9 9 8 8 8 7 7 7 6 6 8 6
7 13 12 8 7 8 8 10 11 11 12 12 12 12 10 13 11 11 9 8 9 10 10 10 10 10 10 10 10 9 9 9 9 8 8 7 7 7 7 7 6 6 5
7 10 15 12 8 9 10 10 11 12 12 12 12 14 21 14 11 10 9 9 9 10 10 10 10 10 9 9 9 10 11 10 9 9 8 7 7 7 6 6 6 6 6
7 8 8 9 10 9 11 10 11 12 13 14 13 14 22 13 10 10 9 10 9 9 9 10 10 9 9 10 10 10 10 10 9 8 8 8 7 7 6 6 6 6 6
8 9 10 10 10 14 14 10 10 12 13 13 13 13 12 10 10 10 10 10 9 9 9 9 10 10 9 9 9 10 11 11 9 9 9 9 8 8 7 7 8 7 7
8 10 11 10 10 10 11 11 10 11 12 13 12 12 11 10 10 11 11 10 10 10 9 10 11 12 14 12 10 9 10 11 10 10 11 11 10 9 8 8 8 9 8
9 9 10 10 10 11 11 12 12 12 12 13 13 12 11 11 11 11 10 10 11 11 12 12 11 12 14 15 14 13 17 21 20 14 10 10 10 10 10 9 9 9 9
9 9 10 9 10 10 11 12 12 12 12 13 12 11 12 12 12 12 11 10 11 11 12 11 12 14 15 14 16 19 23 23 22 22 13 9 10 10 10 9 11 10 10
Wind_Direction
162 157 151 163 165 159 171 240 270 285 298 300 299 300 299 297 294 290 286 285 281 281 280 277 274 273 270 265 260 261 263 268 285 291 274 271 269 273 281 280 281 280 280
161 154 157 161 152 165 228 260 270 282 287 288 293 295 293 292 290 286 286 287 281 282 281 279 277 279 271 267 265 266 269 267 277 290 291 278 268 268 271 272 280 280 276
155 152 154 162 176 217 243 260 271 280 288 290 291 289 289 288 287 283 279 279 276 274 274 274 275 275 276 273 268 270 272 276 272 281 288 284 276 272 273 274 273 273 275
154 157 172 197 213 230 245 258 268 274 282 285 284 282 282 284 285 283 280 276 274 271 269 267 268 266 269 273 275 270 271 273 273 278 285 287 282 270 268 275 280 270 272
158 172 200 218 227 239 253 263 270 274 274 276 281 284 284 285 281 282 279 272 271 272 269 265 265 273 278 283 285 278 274 276 280 283 286 288 286 280 274 272 281 281 271
169 194 214 227 241 252 259 266 272 275 276 277 278 280 284 288 299 305 304 289 278 275 276 273 273 280 286 290 292 293 290 286 285 283 285 285 287 282 279 278 281 284 285
181 208 227 239 252 258 264 270 272 273 274 278 277 276 276 283 299 305 306 304 287 278 276 277 284 286 293 284 287 289 287 285 285 284 283 283 284 281 279 280 276 275 275
195 226 242 247 256 264 269 270 270 269 271 273 276 275 275 284 300 306 307 303 283 275 273 274 277 279 279 285 278 275 271 273 276 278 271 272 273 273 267 269 272 274 272
220 240 248 248 255 264 267 268 269 271 273 272 272 274 275 285 298 305 306 292 282 276 273 273 279 278 285 292 292 287 285 279 282 283 282 282 282 284 283 282 278 279 280
236 246 251 248 250 258 262 267 269 270 271 275 276 274 274 278 292 302 304 292 285 283 277 272 283 288 292 295 292 287 289 288 282 283 284 284 283 281 284 277 273 276 277
246 253 258 256 255 259 264 267 272 276 278 278 280 279 275 279 292 299 303 299 287 287 287 282 278 293 295 295 295 290 290 293 288 287 287 282 279 273 269 264 256 259 267
256 261 264 265 267 270 268 274 275 277 281 283 284 285 277 278 289 296 301 301 301 295 292 287 286 295 296 297 299 296 298 302 296 291 288 285 282 279 275 269 261 256 254
263 266 268 272 271 271 271 277 282 280 281 286 287 290 290 277 280 296 301 302 301 298 290 294 298 300 303 301 297 298 301 299 292 288 285 282 276 275 278 279 271 264 260
268 273 274 276 279 278 274 273 277 279 281 285 288 290 292 289 279 279 279 289 295 295 292 293 298 300 299 296 296 296 289 280 284 281 281 281 281 279 279 278 280 278 272
271 273 276 274 275 280 277 270 276 266 272 286 286 285 293 296 293 300 303 300 297 291 300 295 293 295 292 288 285 282 279 281 284 278 279 285 287 284 282 276 271 270 267
270 273 273 275 276 277 283 289 283 284 291 293 294 294 294 295 301 304 306 306 307 306 307 300 299 295 293 293 293 291 287 283 281 281 281 281 283 283 282 278 269 265 266
263 272 274 273 277 279 282 289 297 299 294 293 295 296 297 300 302 304 306 307 307 309 303 293 291 291 290 289 288 288 288 285 282 282 281 278 278 279 276 275 271 265 261
268 276 280 271 273 277 279 282 287 294 301 297 294 295 298 300 301 303 305 308 302 299 281 283 285 287 287 286 285 285 286 285 282 280 277 274 273 275 274 268 264 258 260
272 272 272 270 271 274 278 282 285 287 291 294 295 295 297 298 299 298 302 293 289 289 286 282 282 284 285 284 284 283 282 283 282 281 277 271 269 269 269 266 263 264 264
272 282 290 284 277 279 281 284 287 288 289 290 292 294 296 295 291 291 285 275 280 284 285 284 284 283 282 282 282 282 283 281 280 277 275 271 267 263 262 263 259 254 251
271 279 290 290 280 281 282 283 284 286 287 289 289 291 296 298 295 291 288 283 281 283 285 285 285 283 281 281 280 280 280 281 279 277 275 271 266 263 259 257 252 248 250
270 272 273 277 280 280 283 283 285 288 290 291 292 294 298 295 288 286 284 283 278 277 280 282 282 279 277 278 280 282 282 280 278 275 273 269 265 262 259 255 251 247 246
271 277 281 280 280 287 292 287 287 289 291 291 292 294 293 288 286 286 285 284 281 281 280 279 281 280 277 276 276 277 278 278 277 274 273 272 265 260 254 252 250 248 246
274 278 283 286 287 286 287 289 291 291 292 293 293 293 292 289 287 287 287 287 286 285 283 281 279 278 278 280 280 277 275 275 273 270 263 263 262 259 252 250 249 246 245
278 280 284 287 290 291 290 291 291 290 290 293 294 295 295 295 293 291 289 288 286 286 284 283 282 281 279 278 279 280 281 283 283 279 265 257 254 250 249 248 248 248 244
281 283 286 286 285 286 288 289 290 290 291 292 293 292 292 292 291 290 289 287 287 288 287 286 280 279 279 280 281 283 285 286 285 283 275 261 251 248 245 247 246 246 246
Height
1516 1517 1518 1518 1517 1517 1516 1514 1513 1512 1510 1507 1505 1502 1500 1497 1494 1490 1487 1484 1480 1477 1474 1471 1467 1464 1461 1458 1454 1451 1447 1442 1432 1423 1425 1423 1422 1420 1417 1415 1412 1409 1406
1513 1514 1514 1514 1514 1513 1512 1511 1509 1507 1505 1503 1500 1497 1494 1491 1488 1484 1480 1477 1474 1470 1467 1463 1459 1456 1452 1449 1445 1441 1438 1434 1427 1417 1414 1414 1412 1411 1408 1405 1402 1400 1397
1510 1511 1511 1511 1510 1510 1509 1507 1505 1503 1501 1498 1495 1492 1489 1485 1481 1478 1474 1470 1466 1463 1459 1455 1452 1448 1444 1440 1436 1432 1428 1425 1421 1414 1407 1405 1403 1402 1399 1396 1394 1391 1389
1506 1507 1507 1507 1507 1506 1504 1503 1501 1498 1496 1493 1490 1486 1483 1479 1475 1471 1467 1462 1459 1455 1451 1448 1444 1440 1435 1431 1427 1423 1420 1416 1412 1408 1401 1397 1395 1394 1392 1388 1384 1382 1380
1503 1503 1504 1503 1502 1501 1500 1498 1496 1493 1490 1487 1484 1480 1477 1473 1468 1464 1459 1455 1451 1446 1443 1439 1436 1432 1427 1424 1421 1416 1413 1409 1405 1401 1395 1391 1388 1386 1384 1381 1377 1373 1370
1499 1499 1499 1499 1498 1497 1495 1493 1490 1488 1485 1481 1478 1474 1470 1466 1462 1457 1453 1447 1443 1439 1434 1430 1427 1423 1419 1415 1412 1409 1406 1402 1397 1393 1388 1384 1380 1379 1376 1373 1370 1366 1362
1495 1495 1495 1494 1493 1491 1489 1487 1484 1481 1478 1475 1471 1467 1463 1459 1454 1449 1445 1440 1435 1430 1426 1421 1417 1414 1411 1406 1402 1399 1396 1394 1391 1387 1381 1376 1373 1371 1368 1365 1362 1358 1355
1491 1491 1490 1489 1488 1486 1484 1481 1478 1475 1471 1468 1464 1460 1455 1451 1447 1442 1437 1432 1426 1422 1418 1413 1409 1404 1401 1397 1393 1388 1385 1383 1380 1377 1372 1368 1365 1362 1360 1357 1353 1349 1346
1487 1486 1485 1484 1482 1480 1477 1474 1471 1468 1464 1460 1456 1452 1447 1443 1439 1434 1428 1422 1417 1413 1409 1405 1401 1396 1393 1390 1386 1380 1375 1372 1370 1367 1363 1360 1356 1354 1352 1349 1345 1342 1338
1482 1481 1480 1479 1476 1474 1471 1468 1464 1460 1456 1452 1448 1444 1439 1434 1430 1425 1420 1414 1408 1403 1399 1396 1393 1389 1385 1382 1378 1372 1366 1362 1359 1355 1352 1349 1346 1344 1342 1340 1337 1334 1331
1477 1476 1475 1473 1470 1467 1464 1461 1457 1452 1448 1444 1439 1435 1431 1426 1421 1417 1412 1407 1402 1396 1391 1387 1383 1380 1376 1373 1369 1364 1359 1355 1350 1346 1342 1339 1336 1334 1332 1330 1328 1326 1324
1472 1470 1469 1466 1464 1461 1457 1453 1449 1445 1439 1434 1429 1424 1421 1417 1413 1408 1404 1400 1395 1389 1383 1378 1374 1371 1367 1363 1359 1355 1351 1347 1342 1338 1334 1331 1328 1326 1323 1321 1320 1318 1316
1466 1464 1462 1459 1457 1453 1449 1445 1441 1436 1431 1426 1421 1415 1410 1407 1403 1400 1395 1390 1386 1381 1376 1371 1367 1362 1358 1353 1350 1346 1342 1338 1334 1330 1326 1323 1321 1318 1316 1314 1312 1310 1309
1460 1458 1455 1452 1449 1445 1442 1437 1432 1428 1423 1418 1412 1407 1401 1397 1393 1389 1385 1381 1377 1372 1367 1362 1358 1353 1349 1345 1341 1337 1334 1331 1327 1323 1320 1317 1314 1312 1309 1307 1305 1304 1302
1453 1451 1448 1444 1441 1436 1433 1429 1424 1420 1416 1411 1405 1400 1395 1388 1385 1383 1379 1373 1369 1364 1359 1353 1349 1344 1340 1336 1332 1329 1326 1323 1320 1317 1314 1311 1308 1306 1304 1302 1300 1299 1297
1446 1443 1440 1436 1432 1428 1423 1418 1415 1412 1407 1403 1398 1394 1387 1383 1377 1374 1370 1365 1361 1356 1352 1345 1341 1337 1332 1328 1325 1322 1319 1316 1313 1311 1308 1305 1303 1300 1298 1296 1295 1294 1293
1439 1435 1432 1428 1424 1419 1415 1409 1403 1399 1397 1393 1389 1384 1380 1374 1370 1365 1361 1356 1352 1348 1343 1338 1334 1330 1326 1322 1318 1315 1312 1309 1307 1304 1301 1299 1297 1294 1293 1291 1290 1289 1288
1432 1428 1424 1420 1416 1411 1407 1402 1397 1390 1385 1380 1378 1375 1370 1366 1361 1357 1353 1348 1342 1339 1335 1331 1326 1322 1319 1315 1312 1308 1305 1302 1300 1297 1295 1293 1291 1289 1287 1286 1285 1284 1283
1423 1420 1416 1411 1407 1403 1398 1394 1389 1384 1378 1372 1367 1363 1361 1357 1352 1348 1344 1340 1335 1330 1327 1323 1319 1315 1311 1308 1305 1302 1299 1296 1293 1291 1288 1286 1284 1283 1281 1280 1279 1278 1278
1415 1412 1408 1403 1399 1394 1390 1385 1380 1375 1370 1365 1360 1355 1351 1347 1342 1338 1335 1331 1327 1322 1319 1315 1311 1307 1303 1300 1297 1294 1291 1288 1286 1284 1282 1280 1278 1277 1275 1274 1273 1272 1272
1406 1403 1399 1395 1390 1386 1381 1376 1371 1367 1362 1356 1352 1348 1344 1340 1334 1330 1326 1322 1319 1315 1310 1307 1303 1299 1296 1293 1290 1287 1284 1281 1279 1277 1275 1273 1271 1270 1269 1268 1267 1266 1266
1398 1394 1390 1385 1381 1376 1372 1367 1363 1358 1353 1348 1342 1338 1335 1331 1326 1321 1317 1313 1310 1306 1302 1298 1294 1291 1288 1285 1282 1279 1277 1274 1272 1270 1268 1266 1264 1263 1262 1261 1260 1260 1260
1389 1385 1380 1376 1372 1367 1363 1358 1354 1349 1344 1339 1334 1329 1325 1320 1316 1312 1308 1304 1300 1297 1293 1289 1286 1282 1279 1277 1274 1272 1269 1266 1264 1262 1260 1258 1257 1256 1255 1254 1253 1253 1253
1380 1376 1371 1367 1362 1357 1353 1348 1344 1339 1334 1329 1325 1320 1316 1311 1307 1303 1299 1295 1291 1287 1284 1280 1277 1273 1271 1268 1266 1263 1261 1258 1256 1254 1252 1251 1249 1248 1248 1247 1246 1246 1245
1371 1367 1362 1358 1353 1348 1343 1338 1334 1329 1325 1320 1316 1311 1307 1303 1298 1294 1290 1286 1282 1278 1274 1271 1268 1265 1262 1259 1256 1254 1252 1250 1248 1246 1245 1243 1241 1240 1240 1239 1238 1238 1238
1362 1357 1353 1348 1343 1338 1333 1328 1324 1319 1315 1311 1307 1302 1298 1293 1289 1284 1280 1276 1272 1268 1265 1261 1258 1255 1252 1249 1247 1244 1242 1240 1239 1238 1237 1235 1233 1232 1231 1231 1230 1229 1229